Location: *
(50.3440°N, 18.6237°E)
Time: 18:11:48
(UTC+00:00)

CZ-4C R/B - Pass Details

Date: 30 November 2020
Orbit: 407 x 489 km, 97.7° (Epoch: 18 January)

Event Time Altitude Azimuth Distance (km) Brightness Sun altitude
Exits shadow 16:07:58 - 10° (N) 2,428 6.3 -12.6°
Reaches altitude 10° 16:09:43 10° 7° (N) 1,695 5.6 -12.8°
Maximum altitude 16:13:19 58° 287° (WNW) 579 3.7 -13.4°
Drops below altitude 10° 16:16:52 10° 208° (SSW) 1,675 6.5 -13.9°
Sets 16:18:55 0° 205° (SSW) 2,544 7.4 -14.2°
